Time,TemperatureF,DewpointF,PressureIn,WindDirection,WindDirectionDegrees,WindSpeedMPH,WindSpeedGustMPH,Humidity,HourlyPrecipIn,Conditions,Clouds,dailyrainin,SoftwareType,DateUTC
2013-01-02 00:03:00,61.0,58.0,30.03,SSW,202,0.0,0.0,91,0.00,,,0.01,,2013-01-02 05:03:00,
2013-01-02 00:12:00,61.0,58.0,30.03,SSW,202,0.0,0.0,91,0.00,,,0.01,,2013-01-02 05:12:00,
2013-01-02 00:22:00,60.0,57.0,30.02,SSW,202,0.0,0.0,91,0.00,,,0.01,,2013-01-02 05:22:00,
2013-01-02 00:33:00,61.0,59.0,30.02,SSW,202,0.0,0.0,92,0.00,,,0.01,,2013-01-02 05:33:00,
2013-01-02 00:42:00,61.0,59.0,30.02,SSW,202,0.0,0.0,92,0.00,,,0.01,,2013-01-02 05:42:00,
2013-01-02 00:53:00,61.0,59.0,30.01,SSW,202,0.0,0.0,92,0.00,,,0.01,,2013-01-02 05:53:00,
2013-01-02 01:02:00,60.0,58.0,30.01,SSW,202,0.0,0.0,92,0.00,,,0.01,,2013-01-02 06:02:00,
2013-01-02 01:12:00,60.0,58.0,30.01,SSW,202,0.0,0.0,92,0.00,,,0.01,,2013-01-02 06:12:00,
2013-01-02 01:22:00,60.0,58.0,30.01,SSW,202,0.0,0.0,92,0.00,,,0.01,,2013-01-02 06:22:00,
2013-01-02 01:32:00,60.0,58.0,30.01,SSW,202,0.0,0.0,92,0.00,,,0.01,,2013-01-02 06:32:00,
2013-01-02 01:42:00,60.0,58.0,30.01,SSW,202,0.0,0.0,92,0.00,,,0.01,,2013-01-02 06:42:00,
2013-01-02 01:53:00,60.0,58.0,30.01,SSW,202,0.0,1.0,93,0.00,,,0.01,,2013-01-02 06:53:00,
2013-01-02 02:02:00,60.0,58.0,30.01,SSW,202,1.0,2.0,93,0.00,,,0.01,,2013-01-02 07:02:00,
2013-01-02 02:12:00,60.0,58.0,30.01,SSW,202,1.0,2.0,93,0.00,,,0.01,,2013-01-02 07:12:00,
2013-01-02 02:22:00,61.0,59.0,30.00,SSW,202,0.0,2.0,94,0.00,,,0.01,,2013-01-02 07:22:00,
2013-01-02 02:32:00,62.0,60.0,30.00,SSW,202,1.0,2.0,94,0.00,,,0.01,,2013-01-02 07:32:00,
2013-01-02 02:42:00,62.0,60.0,30.00,SSW,202,1.0,2.0,94,0.00,,,0.01,,2013-01-02 07:42:00,
2013-01-02 02:52:00,62.0,60.0,30.00,SSW,202,0.0,1.0,94,0.00,,,0.01,,2013-01-02 07:52:00,
2013-01-02 03:02:00,62.0,60.0,30.00,SSW,202,0.0,0.0,94,0.00,,,0.01,,2013-01-02 08:02:00,
2013-01-02 03:12:00,62.0,60.0,30.00,SSW,202,0.0,0.0,94,0.00,,,0.01,,2013-01-02 08:12:00,
2013-01-02 03:22:00,62.0,60.0,30.00,SSW,202,0.0,0.0,94,0.00,,,0.01,,2013-01-02 08:22:00,
2013-01-02 03:32:00,62.0,60.0,30.01,SSW,202,0.0,0.0,94,0.00,,,0.01,,2013-01-02 08:32:00,
2013-01-02 03:42:00,62.0,60.0,30.01,SSW,202,0.0,0.0,94,0.00,,,0.01,,2013-01-02 08:42:00,
2013-01-02 03:53:00,61.0,59.0,30.01,SSW,202,0.0,0.0,94,0.00,,,0.01,,2013-01-02 08:53:00,
2013-01-02 04:02:00,61.0,59.0,30.01,SSW,202,0.0,0.0,93,0.00,,,0.01,,2013-01-02 09:02:00,
2013-01-02 04:12:00,61.0,59.0,30.01,SSW,202,0.0,0.0,93,0.00,,,0.01,,2013-01-02 09:12:00,
2013-01-02 04:22:00,61.0,59.0,30.01,SSW,202,0.0,0.0,94,0.00,,,0.01,,2013-01-02 09:22:00,
2013-01-02 04:32:00,61.0,59.0,30.01,SSW,202,0.0,0.0,94,0.00,,,0.01,,2013-01-02 09:32:00,
2013-01-02 04:43:00,61.0,59.0,30.01,SSW,202,0.0,0.0,94,0.00,,,0.01,,2013-01-02 09:43:00,
2013-01-02 04:53:00,61.0,59.0,30.01,SSW,202,2.0,3.0,94,0.00,,,0.01,,2013-01-02 09:53:00,
2013-01-02 05:02:00,61.0,59.0,30.01,SSW,202,0.0,3.0,94,0.00,,,0.00,,2013-01-02 10:02:00,
2013-01-02 05:12:00,62.0,61.0,30.01,SSW,202,0.0,1.0,95,0.00,,,0.00,,2013-01-02 10:12:00,
2013-01-02 05:22:00,62.0,61.0,30.01,SSW,202,0.0,1.0,95,0.00,,,0.00,,2013-01-02 10:22:00,
2013-01-02 05:32:00,62.0,61.0,30.01,SSW,202,0.0,2.0,95,0.00,,,0.00,,2013-01-02 10:32:00,
2013-01-02 05:42:00,62.0,61.0,30.01,SSW,202,0.0,2.0,95,0.00,,,0.00,,2013-01-02 10:42:00,
2013-01-02 05:53:00,61.0,59.0,30.01,SSW,202,0.0,0.0,94,0.00,,,0.00,,2013-01-02 10:53:00,
2013-01-02 06:02:00,61.0,59.0,30.01,SSW,202,0.0,0.0,94,0.00,,,0.00,,2013-01-02 11:02:00,
2013-01-02 06:12:00,61.0,59.0,30.01,SSW,202,0.0,0.0,94,0.00,,,0.00,,2013-01-02 11:12:00,
2013-01-02 06:22:00,61.0,59.0,30.01,SSW,202,0.0,0.0,94,0.00,,,0.00,,2013-01-02 11:22:00,
2013-01-02 06:32:00,61.0,60.0,30.01,SSW,202,0.0,0.0,95,0.00,,,0.00,,2013-01-02 11:32:00,
2013-01-02 06:42:00,61.0,60.0,30.01,SSW,202,0.0,0.0,95,0.00,,,0.00,,2013-01-02 11:42:00,
2013-01-02 06:53:00,61.0,60.0,30.02,SSW,202,0.0,0.0,95,0.00,,,0.00,,2013-01-02 11:53:00,
2013-01-02 07:03:00,61.0,60.0,30.02,SSW,202,0.0,0.0,95,0.00,,,0.00,,2013-01-02 12:03:00,
2013-01-02 07:12:00,61.0,60.0,30.02,SSW,202,0.0,0.0,95,0.00,,,0.00,,2013-01-02 12:12:00,
2013-01-02 07:22:00,62.0,61.0,30.02,SSW,202,0.0,0.0,95,0.00,,,0.00,,2013-01-02 12:22:00,
2013-01-02 07:33:00,62.0,61.0,30.02,SSW,202,1.0,3.0,95,0.00,,,0.00,,2013-01-02 12:33:00,
2013-01-02 07:42:00,62.0,61.0,30.02,SSW,202,1.0,3.0,95,0.00,,,0.00,,2013-01-02 12:42:00,
2013-01-02 07:53:00,62.0,61.0,30.02,SSE,161,2.0,3.0,95,0.00,,,0.00,,2013-01-02 12:53:00,
2013-01-02 08:02:00,62.0,61.0,30.02,South,171,2.0,5.0,95,0.00,,,0.00,,2013-01-02 13:02:00,
2013-01-02 08:12:00,62.0,61.0,30.02,South,171,2.0,5.0,95,0.00,,,0.00,,2013-01-02 13:12:00,
2013-01-02 08:22:00,63.0,62.0,30.03,SSE,149,3.0,7.0,95,0.00,,,0.00,,2013-01-02 13:22:00,
2013-01-02 08:33:00,63.0,62.0,30.04,West,259,1.0,3.0,95,0.00,,,0.00,,2013-01-02 13:33:00,
2013-01-02 08:43:00,63.0,62.0,30.04,West,259,1.0,3.0,95,0.00,,,0.00,,2013-01-02 13:43:00,
2013-01-02 08:52:00,63.0,62.0,30.04,SE,130,2.0,5.0,95,0.01,,,0.01,,2013-01-02 13:52:00,
2013-01-02 09:02:00,64.0,63.0,30.04,SE,132,1.0,6.0,95,0.01,,,0.01,,2013-01-02 14:02:00,
2013-01-02 09:12:00,64.0,63.0,30.04,SE,132,1.0,6.0,95,0.01,,,0.01,,2013-01-02 14:12:00,
2013-01-02 09:22:00,65.0,64.0,30.04,South,184,1.0,5.0,95,0.01,,,0.01,,2013-01-02 14:22:00,
2013-01-02 09:33:00,66.0,65.0,30.04,SE,141,2.0,4.0,95,0.01,,,0.01,,2013-01-02 14:33:00,
2013-01-02 09:43:00,66.0,65.0,30.04,SE,141,2.0,4.0,95,0.01,,,0.01,,2013-01-02 14:43:00,
2013-01-02 09:53:00,67.0,65.0,30.04,South,173,0.0,5.0,94,0.00,,,0.01,,2013-01-02 14:53:00,
2013-01-02 10:03:00,68.0,66.0,30.04,ESE,107,3.0,7.0,93,0.00,,,0.01,,2013-01-02 15:03:00,
2013-01-02 10:12:00,68.0,66.0,30.04,ESE,107,3.0,7.0,93,0.00,,,0.01,,2013-01-02 15:12:00,
2013-01-02 10:23:00,69.0,67.0,30.05,South,178,2.0,6.0,92,0.00,,,0.01,,2013-01-02 15:23:00,
2013-01-02 10:33:00,71.0,68.0,30.04,SSE,165,3.0,7.0,90,0.00,,,0.01,,2013-01-02 15:33:00,
2013-01-02 10:43:00,71.0,68.0,30.04,SSE,165,3.0,7.0,90,0.00,,,0.01,,2013-01-02 15:43:00,
2013-01-02 10:53:00,72.0,68.0,30.04,South,180,2.0,8.0,87,0.00,,,0.01,,2013-01-02 15:53:00,
2013-01-02 11:03:00,74.0,68.0,30.04,SSW,194,5.0,9.0,82,0.00,,,0.01,,2013-01-02 16:03:00,
2013-01-02 11:13:00,74.0,68.0,30.04,SSW,194,5.0,9.0,82,0.00,,,0.01,,2013-01-02 16:13:00,
2013-01-02 11:22:00,75.0,68.0,30.03,SW,228,4.0,9.0,78,0.00,,,0.01,,2013-01-02 16:22:00,
2013-01-02 11:33:00,75.0,67.0,30.03,SW,224,4.0,10.0,76,0.00,,,0.01,,2013-01-02 16:33:00,
2013-01-02 11:43:00,75.0,67.0,30.03,SW,224,4.0,10.0,76,0.00,,,0.01,,2013-01-02 16:43:00,
2013-01-02 11:53:00,76.0,67.0,30.03,West,278,6.0,9.0,73,0.00,,,0.01,,2013-01-02 16:53:00,
2013-01-02 12:03:00,76.0,66.0,30.02,WSW,237,5.0,9.0,71,0.00,,,0.01,,2013-01-02 17:03:00,
2013-01-02 12:13:00,76.0,66.0,30.02,WSW,237,5.0,9.0,71,0.00,,,0.01,,2013-01-02 17:13:00,
2013-01-02 12:23:00,77.0,66.0,30.01,SW,227,3.0,9.0,70,0.00,,,0.01,,2013-01-02 17:23:00,
2013-01-02 12:33:00,76.0,66.0,30.01,WSW,241,6.0,10.0,72,0.00,,,0.01,,2013-01-02 17:33:00,
2013-01-02 12:43:00,76.0,66.0,30.01,WSW,241,6.0,10.0,72,0.00,,,0.01,,2013-01-02 17:43:00,
2013-01-02 12:53:00,77.0,66.0,30.01,SSW,199,6.0,8.0,69,0.00,,,0.01,,2013-01-02 17:53:00,
2013-01-02 13:03:00,76.0,65.0,30.00,SW,223,5.0,10.0,69,0.00,,,0.01,,2013-01-02 18:03:00,
2013-01-02 13:13:00,76.0,65.0,30.00,SW,223,5.0,10.0,69,0.00,,,0.01,,2013-01-02 18:13:00,
2013-01-02 13:23:00,77.0,66.0,29.99,SW,215,7.0,10.0,70,0.00,,,0.01,,2013-01-02 18:23:00,
2013-01-02 13:33:00,77.0,66.0,29.98,WSW,241,6.0,9.0,69,0.00,,,0.01,,2013-01-02 18:33:00,
2013-01-02 13:43:00,77.0,66.0,29.98,WSW,241,6.0,9.0,69,0.00,,,0.01,,2013-01-02 18:43:00,
2013-01-02 13:53:00,77.0,65.0,29.98,WSW,239,6.0,11.0,67,0.00,,,0.01,,2013-01-02 18:53:00,
2013-01-02 14:03:00,77.0,66.0,29.97,SSW,207,7.0,12.0,68,0.00,,,0.01,,2013-01-02 19:03:00,
2013-01-02 14:13:00,77.0,66.0,29.97,SSW,207,7.0,12.0,68,0.00,,,0.01,,2013-01-02 19:13:00,
2013-01-02 14:23:00,77.0,66.0,29.97,WSW,241,5.0,9.0,68,0.00,,,0.01,,2013-01-02 19:23:00,
2013-01-02 14:33:00,77.0,66.0,29.97,SW,216,6.0,10.0,68,0.00,,,0.01,,2013-01-02 19:33:00,
2013-01-02 14:43:00,77.0,66.0,29.97,SW,216,6.0,10.0,68,0.00,,,0.01,,2013-01-02 19:43:00,
2013-01-02 14:53:00,77.0,66.0,29.97,WSW,247,5.0,9.0,69,0.00,,,0.01,,2013-01-02 19:53:00,
2013-01-02 15:03:00,76.0,65.0,29.97,SSW,213,6.0,9.0,69,0.00,,,0.01,,2013-01-02 20:03:00,
2013-01-02 15:12:00,76.0,65.0,29.97,SSW,213,6.0,9.0,69,0.00,,,0.01,,2013-01-02 20:12:00,
2013-01-02 15:23:00,76.0,66.0,29.97,SW,227,4.0,10.0,71,0.00,,,0.01,,2013-01-02 20:23:00,
2013-01-02 15:33:00,76.0,66.0,29.97,WSW,247,6.0,7.0,71,0.00,,,0.01,,2013-01-02 20:33:00,
2013-01-02 15:42:00,76.0,66.0,29.97,WSW,247,6.0,7.0,71,0.00,,,0.01,,2013-01-02 20:42:00,
2013-01-02 15:53:00,77.0,66.0,29.97,SW,225,5.0,8.0,70,0.00,,,0.01,,2013-01-02 20:53:00,
2013-01-02 16:03:00,76.0,65.0,29.97,WSW,245,5.0,8.0,70,0.00,,,0.01,,2013-01-02 21:03:00,
2013-01-02 16:13:00,76.0,65.0,29.97,WSW,245,5.0,8.0,70,0.00,,,0.01,,2013-01-02 21:13:00,
2013-01-02 16:22:00,76.0,66.0,29.98,SW,223,5.0,8.0,71,0.00,,,0.01,,2013-01-02 21:22:00,
2013-01-02 16:33:00,76.0,66.0,29.98,SSW,205,4.0,7.0,72,0.00,,,0.01,,2013-01-02 21:33:00,
2013-01-02 16:43:00,76.0,66.0,29.98,SSW,205,4.0,7.0,72,0.00,,,0.01,,2013-01-02 21:43:00,
2013-01-02 16:53:00,76.0,66.0,29.98,SW,230,3.0,6.0,72,0.00,,,0.01,,2013-01-02 21:53:00,
2013-01-02 17:03:00,75.0,66.0,29.98,West,276,2.0,7.0,74,0.00,,,0.01,,2013-01-02 22:03:00,
2013-01-02 17:12:00,75.0,66.0,29.98,West,276,2.0,7.0,74,0.00,,,0.01,,2013-01-02 22:12:00,
2013-01-02 17:22:00,75.0,67.0,29.98,West,268,1.0,4.0,75,0.00,,,0.01,,2013-01-02 22:22:00,
2013-01-02 17:32:00,74.0,66.0,29.98,WSW,244,2.0,4.0,76,0.00,,,0.01,,2013-01-02 22:32:00,
2013-01-02 17:42:00,74.0,66.0,29.98,WSW,244,2.0,4.0,76,0.00,,,0.01,,2013-01-02 22:42:00,
2013-01-02 17:53:00,73.0,66.0,29.99,SW,223,0.0,4.0,78,0.00,,,0.01,,2013-01-02 22:53:00,
2013-01-02 18:03:00,73.0,66.0,29.99,SSW,212,0.0,3.0,79,0.00,,,0.01,,2013-01-02 23:03:00,
2013-01-02 18:13:00,72.0,66.0,30.00,SW,216,0.0,1.0,81,0.00,,,0.01,,2013-01-02 23:13:00,
2013-01-02 18:23:00,72.0,66.0,30.00,SW,216,0.0,1.0,81,0.00,,,0.01,,2013-01-02 23:23:00,
2013-01-02 18:33:00,71.0,66.0,30.00,SSW,213,0.0,2.0,84,0.00,,,0.01,,2013-01-02 23:33:00,
2013-01-02 18:42:00,71.0,66.0,30.00,SSW,213,0.0,2.0,84,0.00,,,0.01,,2013-01-02 23:42:00,
2013-01-02 18:53:00,71.0,66.0,30.00,SSW,205,0.0,2.0,85,0.00,,,0.01,,2013-01-02 23:53:00,
2013-01-02 19:02:00,70.0,66.0,30.01,SSW,200,0.0,3.0,87,0.00,,,0.01,,2013-01-03 00:02:00,
2013-01-02 19:12:00,70.0,66.0,30.01,SSW,200,0.0,3.0,87,0.00,,,0.01,,2013-01-03 00:12:00,
2013-01-02 19:22:00,70.0,66.0,30.01,SSW,200,0.0,0.0,87,0.00,,,0.01,,2013-01-03 00:22:00,
2013-01-02 19:38:00,69.0,65.0,30.01,SSW,200,0.0,0.0,88,0.00,,,0.01,,2013-01-03 00:38:00,
2013-01-02 19:53:00,69.0,66.0,30.02,SSW,200,0.0,1.0,89,0.00,,,0.01,,2013-01-03 00:53:00,
2013-01-02 20:02:00,68.0,65.0,30.02,SSW,200,0.0,0.0,89,0.00,,,0.01,,2013-01-03 01:02:00,
2013-01-02 20:12:00,68.0,65.0,30.02,SSW,200,0.0,0.0,89,0.00,,,0.01,,2013-01-03 01:12:00,
2013-01-02 20:22:00,68.0,65.0,30.02,SSW,213,0.0,2.0,90,0.00,,,0.01,,2013-01-03 01:22:00,
2013-01-02 20:32:00,67.0,64.0,30.02,SSW,213,0.0,0.0,91,0.00,,,0.01,,2013-01-03 01:32:00,
2013-01-02 20:42:00,67.0,64.0,30.02,SSW,213,0.0,0.0,91,0.00,,,0.01,,2013-01-03 01:42:00,
2013-01-02 20:53:00,67.0,64.0,30.03,SSW,213,0.0,0.0,91,0.00,,,0.01,,2013-01-03 01:53:00,
2013-01-02 21:02:00,66.0,64.0,30.03,SSW,213,0.0,0.0,92,0.00,,,0.01,,2013-01-03 02:02:00,
2013-01-02 21:12:00,66.0,64.0,30.03,SSW,213,0.0,0.0,92,0.00,,,0.01,,2013-01-03 02:12:00,
2013-01-02 21:22:00,66.0,64.0,30.03,SSW,213,0.0,0.0,92,0.00,,,0.01,,2013-01-03 02:22:00,
2013-01-02 21:33:00,66.0,64.0,30.03,SSW,213,0.0,0.0,92,0.00,,,0.01,,2013-01-03 02:33:00,
2013-01-02 21:42:00,66.0,64.0,30.03,SSW,213,0.0,0.0,92,0.00,,,0.01,,2013-01-03 02:42:00,
2013-01-02 21:52:00,66.0,64.0,30.03,SSW,213,0.0,0.0,92,0.00,,,0.01,,2013-01-03 02:52:00,
2013-01-02 22:02:00,66.0,64.0,30.04,SSW,213,0.0,0.0,93,0.00,,,0.01,,2013-01-03 03:02:00,
2013-01-02 22:12:00,66.0,64.0,30.05,SSW,213,0.0,1.0,93,0.00,,,0.01,,2013-01-03 03:12:00,
2013-01-02 22:22:00,66.0,64.0,30.05,SSW,213,0.0,1.0,93,0.00,,,0.01,,2013-01-03 03:22:00,
2013-01-02 22:46:00,66.0,64.0,30.04,SSW,213,1.0,2.0,93,0.00,,,0.01,,2013-01-03 03:46:00,
2013-01-02 22:53:00,65.0,63.0,30.05,SSW,213,1.0,2.0,94,0.00,,,0.01,,2013-01-03 03:53:00,
2013-01-02 23:02:00,65.0,63.0,30.04,SSW,213,0.0,1.0,94,0.00,,,0.01,,2013-01-03 04:02:00,
2013-01-02 23:12:00,65.0,63.0,30.04,SSW,213,0.0,1.0,94,0.00,,,0.01,,2013-01-03 04:12:00,
2013-01-02 23:22:00,65.0,63.0,30.05,SSW,213,0.0,1.0,94,0.00,,,0.01,,2013-01-03 04:22:00,
2013-01-02 23:32:00,65.0,63.0,30.04,SSW,213,0.0,0.0,94,0.00,,,0.01,,2013-01-03 04:32:00,
2013-01-02 23:42:00,65.0,63.0,30.04,SSW,213,0.0,0.0,94,0.00,,,0.01,,2013-01-03 04:42:00,
2013-01-02 23:53:00,65.0,63.0,30.04,SSW,213,0.0,1.0,94,0.00,,,0.01,,2013-01-03 04:53:00,